Location: B?ogocice
(50.2413°N, 20.2361°E)
Time: 16:33:31
(UTC+00:00)

SAR-Lupe-4 - Pass Details

Date: 20 September 2024
Orbit: 476 x 483 km, 98.1° (Epoch: 03 October)

Event Time Altitude Azimuth Distance (km) Brightness Sun altitude
Rises 03:33:36 0° 0° (N) 2,556 7.4 -8.6°
Reaches altitude 10° 03:36:10 10° 341° (NNW) 1,669 6.2 -8.2°
Maximum altitude 03:38:35 18° 298° (WNW) 1,266 5.2 -7.8°
Drops below altitude 10° 03:41:00 10° 255° (WSW) 1,657 5.6 -7.5°
Enters shadow 03:41:06 10° 254° (WSW) 1,685 5.6 -7.5°
